Hourly Data Report for June 20, 2021

CARIBOU POINT (AUT)
NOVA SCOTIA
Current Station Operator: ECCC - MSC

45°46'00.000" N
62°41'00.000" W
2.40 m
8200774
71415
WBK

Download Data

Hourly Data (June 2021)
Hourly Data Report for June 20, 2021
TIME
LST
Temp Definition
°C
Dew Point Definition
°C
Rel Hum Definition
%
Precip. Amount Definition
mm

Wind Dir Definition
10's deg

Wind Spd Definition
km/h
Visibility Definition
km
Stn Press Definition
kPa
Hmdx Definition


Wind Chill Definition


Weather Definition


00:00 16.5 15.7 95 0.0 20 11   100.24     LegendNANA
01:00 16.2 15.3 95 0.0 20 13   100.21     LegendNANA
02:00 16.2 15.4 95 0.0 25 4   100.26     LegendNANA
03:00 15.2 14.5 96 0.0 17 7   100.23     LegendNANA
04:00 15.4 14.9 97 0.0 22 4   100.22     LegendNANA
05:00 16.2 15.5 96 0.0 23 11   100.19     LegendNANA
06:00 16.2 15.3 94 0.0 29 3   100.23     LegendNANA
07:00 17.8 15.8 88 0.2 21 6   100.25     LegendNANA
08:00 19.4 16.4 83 0.0 21 10   100.27     LegendNANA
09:00 21.5 18.1 81 0.0 23 8   100.27 28   LegendNANA
10:00 22.9 14.7 60 0.0 26 19   100.25 27   LegendNANA
11:00 20.8 15.3 71 0.0 31 10   100.25 25   LegendNANA
12:00 19.8 15.5 76 0.0 35 4   100.24     LegendNANA
13:00 20.2 15.9 76 0.0 31 14   100.24 25   LegendNANA
14:00 19.6 16.1 80 0.0 30 17   100.26     LegendNANA
15:00 19.9 16.5 81 0.0 29 14   100.28     LegendNANA
16:00 19.8 16.1 79 0.0 33 5   100.29     LegendNANA
17:00 20.8 16.2 75 0.0 31 5   100.29 26   LegendNANA
18:00 20.5 15.8 74 0.0 29 3   100.36 25   LegendNANA
19:00 21.0 15.8 72 0.0 24 5   100.44 25   LegendNANA
20:00 19.8 15.7 77 0.0 24 3   100.49     LegendNANA
21:00 19.4 15.5 78 0.0 26 4   100.58     LegendNANA
22:00 19.1 16.4 84 0.0 23 4   100.59     LegendNANA
23:00 16.9 15.0 89 0.0 17 3   100.62     LegendNANA

Notes on Data Quality.

Legend

  • E = Estimated
  • M = Missing
  • NA = Not Available*
  • [empty] = Indicates an unobserved value
Date modified: